Location: Owatonna
(44.0840°N, 93.2260°W)
Time: 17:44:39
(UTC-05:00)

Tiangong - Pass Details

Date: 02 July 2022
Orbit: 379 x 386 km, 41.5° (Epoch: 10 August)

Event Time Altitude Azimuth Distance (km) Brightness Sun altitude
Rises 22:18:20 0° 272° (W) 2,242 2.4 -11.5°
Reaches altitude 10° 22:20:33 10° 261° (W) 1,388 1.1 -11.7°
Maximum altitude 22:23:19 29° 199° (SSW) 728 -1.0 -12.0°
Enters shadow 22:24:34 21° 158° (SSE) 904 -0.8 -12.2°
